Change the Weather History Date:

Thursday, April 11, 2013

  Actual Average Record
Temperature  
Mean Temperature 32 °F -  
Max Temperature 36 °F 64 °F 83 °F (1968)
Min Temperature 29 °F 39 °F 21 °F (1990)
Degree Days  
Heating Degree Days 32    
Moisture  
Dew Point 31 °F    
Average Humidity 94    
Maximum Humidity 100    
Minimum Humidity 87    
Precipitation  
Precipitation 0.01 in - - ()
Sea Level Pressure  
Sea Level Pressure 29.70 in    
Wind  
Wind Speed 13 mph (WNW)    
Max Wind Speed 21 mph    
Max Gust Speed 25 mph    
Visibility 9 miles    
Events Rain , Snow    
Averages and records for this station are not official NWS values.
T = Trace of Precipitation, MM = Missing Value Source: NWS Daily Summary

Daily Weather History Graph

Daily Weather History Graph

Search for Another Location

Airport or City:

Trip Planner

Search our weather history database for the weather conditions in past years. The results will help you decide how hot, cold, wet, or windy it might be!

Date:

Astronomy

Apr. 11, 2013 Rise Set
Actual Time 6:52 AM CDT 8:02 PM CDT
Civil Twilight 6:23 AM CDT 8:31 PM CDT
Nautical Twilight 5:49 AM CDT 9:05 PM CDT
Astronomical Twilight 5:14 AM CDT 9:41 PM CDT
Moon 7:23 AM CDT (4/11) 9:39 PM CDT (4/11)
Length of Visible Light 14h 07m
Length of Day
13h 10m
New Moon, 2% of the Moon is Illuminated
Apr 11
New Moon
Apr 18
First Quarter
Apr 25
Full
May 2
Last Quarter
May 9
New

Hourly Weather History & Observations

Time (CDT) Temp. Windchill Dew Point Humidity Pressure Visibility Wind Dir Wind Speed Gust Speed Precip Events Conditions
12:15 AM 32.0 °F 23.0 °F 32.0 °F 100% 29.81 in 2.5 mi WNW 11.5 mph - N/A Snow Light Snow
12:35 AM 32.0 °F 23.0 °F 32.0 °F 100% 29.81 in 3.0 mi WNW 11.5 mph - N/A Snow Light Snow
12:55 AM 31.8 °F 22.3 °F 31.8 °F 100% 29.79 in 4.0 mi WNW 12.7 mph 18.4 mph N/A Snow Light Snow
1:15 AM 31.8 °F 22.8 °F 31.8 °F 100% 29.79 in 10.0 mi WNW 11.5 mph - N/A   Overcast
1:35 AM 31.8 °F 22.3 °F 31.8 °F 100% 29.79 in 5.0 mi WNW 12.7 mph - N/A Snow Light Snow
1:55 AM 31.6 °F 22.6 °F 31.6 °F 100% 29.78 in 7.0 mi West 11.5 mph - 0.01 in Snow Light Snow
2:15 AM 31.6 °F 22.1 °F 31.6 °F 100% 29.77 in 5.0 mi WNW 12.7 mph - N/A Snow Light Snow
2:35 AM 31.5 °F 21.8 °F 31.5 °F 100% 29.76 in 7.0 mi West 12.7 mph - N/A   Overcast
2:55 AM 31.1 °F 22.4 °F 31.1 °F 100% 29.75 in 10.0 mi WNW 10.4 mph - N/A   Overcast
3:15 AM 31.1 °F 21.9 °F 30.7 °F 99% 29.74 in 10.0 mi WNW 11.5 mph - N/A   Overcast
3:35 AM 31.1 °F 22.4 °F 30.7 °F 99% 29.73 in 10.0 mi WNW 10.4 mph - N/A   Overcast
3:55 AM 30.9 °F 22.8 °F 30.2 °F 97% 29.72 in 10.0 mi West 9.2 mph - N/A   Overcast
4:15 AM 30.6 °F 22.4 °F 30.0 °F 98% 29.72 in 10.0 mi West 9.2 mph - N/A   Overcast
4:35 AM 30.2 °F 20.2 °F 29.8 °F 99% 29.71 in 10.0 mi West 12.7 mph - N/A   Overcast
4:55 AM 29.8 °F 20.9 °F 29.5 °F 99% 29.70 in 10.0 mi West 10.4 mph - N/A   Overcast
5:15 AM 29.8 °F 20.3 °F 29.3 °F 98% 29.69 in 10.0 mi WNW 11.5 mph - N/A   Overcast
5:35 AM 29.8 °F 20.3 °F 29.3 °F 98% 29.67 in 10.0 mi WNW 11.5 mph - N/A   Overcast
5:55 AM 30.0 °F 20.5 °F 29.3 °F 97% 29.68 in 10.0 mi WNW 11.5 mph - N/A   Overcast
6:15 AM 30.0 °F 21.1 °F 29.3 °F 97% 29.68 in 10.0 mi WNW 10.4 mph - N/A   Overcast
6:35 AM 30.0 °F 21.7 °F 29.3 °F 97% 29.68 in 10.0 mi WNW 9.2 mph - N/A   Overcast
6:55 AM 30.2 °F 21.3 °F 29.3 °F 96% 29.68 in 10.0 mi WNW 10.4 mph - N/A   Overcast
7:15 AM 30.2 °F 21.9 °F 29.3 °F 96% 29.69 in 10.0 mi West 9.2 mph - N/A   Overcast
7:35 AM 30.2 °F 22.6 °F 29.1 °F 96% 29.69 in 10.0 mi West 8.1 mph - N/A   Overcast
7:55 AM 30.6 °F 23.1 °F 29.3 °F 95% 29.68 in 10.0 mi West 8.1 mph - N/A   Overcast
8:15 AM 31.1 °F 21.9 °F 29.5 °F 94% 29.68 in 10.0 mi West 11.5 mph - N/A   Overcast
8:35 AM 31.6 °F 22.1 °F 30.0 °F 94% 29.68 in 10.0 mi West 12.7 mph - N/A   Overcast
8:55 AM 31.8 °F 22.3 °F 30.0 °F 93% 29.68 in 10.0 mi West 12.7 mph - N/A   Overcast
9:15 AM 32.0 °F 21.6 °F 30.0 °F 92% 29.67 in 10.0 mi West 15.0 mph - N/A   Overcast
9:35 AM 32.0 °F 21.2 °F 30.2 °F 93% 29.67 in 10.0 mi West 16.1 mph - N/A   Overcast
9:55 AM 31.6 °F 20.7 °F 30.0 °F 94% 29.67 in 10.0 mi West 16.1 mph 23.0 mph N/A   Overcast
10:15 AM 31.8 °F 20.6 °F 30.6 °F 95% 29.67 in 10.0 mi West 17.3 mph 21.9 mph N/A   Overcast
10:35 AM 31.6 °F 21.6 °F 30.7 °F 96% 29.68 in 10.0 mi West 13.8 mph - N/A   Overcast
10:55 AM 32.0 °F 21.6 °F 30.7 °F 95% 29.68 in 10.0 mi West 15.0 mph - N/A   Overcast
11:15 AM 32.0 °F 22.1 °F 30.9 °F 96% 29.67 in 10.0 mi West 13.8 mph - N/A   Overcast
11:35 AM 32.0 °F 21.6 °F 31.1 °F 96% 29.67 in 10.0 mi West 15.0 mph 20.7 mph N/A   Overcast
12:15 PM 32.2 °F 21.8 °F 31.8 °F 99% 29.67 in 4.0 mi West 15.0 mph 21.9 mph N/A   Overcast
12:35 PM 32.7 °F 21.8 °F 31.6 °F 96% 29.67 in 7.0 mi West 17.3 mph - N/A   Overcast
12:55 PM 32.9 °F 22.8 °F 31.5 °F 94% 29.67 in 10.0 mi WNW 15.0 mph 20.7 mph N/A   Overcast
1:15 PM 33.3 °F 23.7 °F 31.3 °F 92% 29.67 in 10.0 mi West 13.8 mph - N/A   Overcast
1:35 PM 33.6 °F 22.6 °F 31.8 °F 93% 29.65 in 10.0 mi West 18.4 mph - N/A   Overcast
1:55 PM 33.4 °F 22.7 °F 31.8 °F 94% 29.65 in 10.0 mi West 17.3 mph - N/A   Overcast
2:15 PM 33.8 °F 23.5 °F 31.8 °F 92% 29.65 in 10.0 mi West 16.1 mph 25.3 mph N/A   Overcast
2:35 PM 33.4 °F 23.1 °F 32.2 °F 95% 29.65 in 2.0 mi West 16.1 mph - N/A Snow Light Snow
2:55 PM 33.8 °F 22.5 °F 32.9 °F 96% 29.65 in 1.2 mi West 19.6 mph - N/A Snow Light Snow
3:15 PM 33.6 °F 22.6 °F 33.3 °F 99% 29.65 in 0.8 mi West 18.4 mph - N/A Snow Light Snow
3:35 PM 34.3 °F 23.9 °F 34.0 °F 99% 29.66 in 1.2 mi West 17.3 mph - N/A Snow Light Snow
3:55 PM 34.9 °F 25.3 °F 34.3 °F 98% 29.65 in 1.8 mi West 15.0 mph - N/A Snow Light Snow
4:15 PM 36.1 °F 26.9 °F 35.2 °F 97% 29.65 in 4.0 mi WNW 15.0 mph - N/A Snow Light Snow
4:35 PM 36.0 °F 26.3 °F 33.8 °F 92% 29.66 in 5.0 mi WNW 16.1 mph 21.9 mph N/A Snow Light Snow
4:55 PM 36.1 °F 25.9 °F 34.0 °F 92% 29.67 in 10.0 mi WNW 18.4 mph - N/A Snow Light Snow
5:15 PM 35.6 °F 25.2 °F 33.1 °F 91% 29.67 in 7.0 mi WNW 18.4 mph - N/A Rain Light Rain
5:35 PM 35.8 °F 26.5 °F 34.0 °F 93% 29.67 in 10.0 mi WNW 15.0 mph 20.7 mph N/A   Overcast
5:55 PM 35.6 °F 25.5 °F 32.7 °F 89% 29.67 in 10.0 mi WNW 17.3 mph - N/A Snow Light Snow
6:15 PM 35.4 °F 25.6 °F 32.9 °F 91% 29.68 in 10.0 mi WNW 16.1 mph - N/A   Overcast
6:35 PM 35.1 °F 24.8 °F 32.2 °F 89% 29.68 in 10.0 mi WNW 17.3 mph 23.0 mph N/A   Overcast
6:55 PM 34.9 °F 24.2 °F 32.0 °F 89% 29.68 in 10.0 mi WNW 18.4 mph 23.0 mph N/A   Overcast
7:15 PM 34.7 °F 23.4 °F 32.4 °F 91% 29.68 in 10.0 mi WNW 20.7 mph 24.2 mph N/A   Overcast
7:35 PM 34.3 °F 23.5 °F 32.0 °F 91% 29.69 in 10.0 mi WNW 18.4 mph 25.3 mph N/A   Overcast
7:55 PM 33.8 °F 22.2 °F 31.1 °F 90% 29.69 in 10.0 mi WNW 20.7 mph 25.3 mph N/A   Overcast
8:15 PM 33.8 °F 22.8 °F 30.2 °F 87% 29.70 in 10.0 mi WNW 18.4 mph 24.2 mph N/A   Overcast
8:35 PM 33.3 °F 22.5 °F 29.8 °F 87% 29.70 in 10.0 mi WNW 17.3 mph 23.0 mph N/A   Overcast
8:55 PM 33.1 °F 23.0 °F 29.8 °F 88% 29.70 in 10.0 mi WNW 15.0 mph - N/A   Overcast
9:15 PM 32.9 °F 23.2 °F 29.8 °F 88% 29.71 in 10.0 mi WNW 13.8 mph 18.4 mph N/A   Overcast
9:35 PM 32.9 °F 23.7 °F 29.8 °F 88% 29.72 in 10.0 mi West 12.7 mph - N/A   Overcast
9:55 PM 32.9 °F 22.4 °F 29.5 °F 87% 29.72 in 10.0 mi WNW 16.1 mph - N/A   Overcast
10:15 PM 32.9 °F 23.2 °F 29.8 °F 88% 29.72 in 10.0 mi WNW 13.8 mph - N/A   Overcast
10:35 PM 32.9 °F 22.0 °F 29.7 °F 88% 29.73 in 10.0 mi WNW 17.3 mph 21.9 mph N/A   Overcast
10:55 PM 32.9 °F 22.4 °F 29.3 °F 87% 29.73 in 10.0 mi WNW 16.1 mph - N/A   Overcast
11:15 PM 32.5 °F 22.7 °F 29.3 °F 88% 29.73 in 10.0 mi WNW 13.8 mph - N/A   Overcast
11:35 PM 32.5 °F 20.5 °F 29.3 °F 88% 29.73 in 10.0 mi WNW 20.7 mph - N/A   Overcast
11:55 PM 32.2 °F 21.4 °F 29.3 °F 89% 29.73 in 10.0 mi WNW 16.1 mph 21.9 mph N/A   Overcast